This is the latest recevied weather packets stored in our database for station/object K3TLB-13. If no packets are shown the sender has not sent any weather packets the latest 10 day(s).
| Time | Temp. | Humidity | Pressure | Rain* | Wind** | Luminosity | Snow |
|---|---|---|---|---|---|---|---|
| 1778193234 | 17.78° C | 39% | 1008.4 hPa | 0 mm | - | - | - |
| 1778192935 | 17.78° C | 37% | 1008.4 hPa | 0 mm | - | - | - |
| 1778192634 | 18.33° C | 39% | 1008.3 hPa | 0 mm | - | - | - |
| 1778192408 | 18.33° C | 36% | 1008.2 hPa | 0 mm | - | - | - |
| 1778192334 | 18.33° C | 36% | 1008.2 hPa | 0 mm | - | - | - |
| 1778192034 | 18.33° C | 34% | 1008.1 hPa | 0 mm | - | - | - |
| 1778191813 | 18.33° C | 34% | 1008.2 hPa | 0 mm | - | - | - |
| 1778191734 | 18.33° C | 34% | 1008.2 hPa | 0 mm | - | - | - |
| 1778191435 | 18.33° C | 39% | 1008.1 hPa | 0 mm | - | - | - |
| 1778191134 | 18.33° C | 38% | 1008.1 hPa | 0 mm | - | - | - |
| 1778190834 | 17.78° C | 35% | 1008.2 hPa | 0 mm | - | - | - |
| 1778190534 | 17.78° C | 34% | 1008.1 hPa | 0 mm | - | - | - |
| 1778190235 | 18.33° C | 35% | 1008 hPa | 0 mm | - | - | - |
| 1778189934 | 18.33° C | 35% | 1008 hPa | 0 mm | - | - | - |
| 1778189636 | 18.89° C | 34% | 1008.2 hPa | 0 mm | - | - | - |
| 1778189335 | 18.33° C | 34% | 1008.2 hPa | 0 mm | - | - | - |
| 1778189207 | 18.89° C | 33% | 1008.3 hPa | 0 mm | - | - | - |
| 1778189038 | 18.89° C | 34% | 1008.4 hPa | 0 mm | - | - | - |
| 1778188734 | 18.89° C | 33% | 1008.3 hPa | 0 mm | - | - | - |
| 1778188435 | 18.89° C | 34% | 1008.2 hPa | 0 mm | - | - | - |
| 1778188134 | 19.44° C | 32% | 1008.2 hPa | 0 mm | - | - | - |
| 1778187835 | 18.89° C | 35% | 1008.2 hPa | 0 mm | - | - | - |
| 1778187534 | 18.89° C | 34% | 1008.3 hPa | 0 mm | - | - | - |
| 1778187238 | 18.33° C | 32% | 1008.2 hPa | 0 mm | - | - | - |
| 1778186983 | 17.78° C | 34% | 1008.3 hPa | 0 mm | - | - | - |
* Rain latest hour (hover to see other rain measurements)
** Current wind speed in m/s (hover to see current wind gust speed)